GW0360 Weather Reports


Display with metric or nautical units.
time (UTC)temp
F
wind
direction
speed
MPH
gust
MPH
rain 1hr
in
rain 24hr
in
rain mn
in
humidity
%
barometer
mb
20260506073049 45 0 0.0 0.0 0.00 0.29 0.00 85 1015.8
20260506072541 45 0 0.0 0.0 0.00 0.29 0.00 85 1015.7
20260506072041 45 0 0.0 0.0 0.00 0.29 0.00 85 1015.8
20260506071555 45 0 0.0 0.0 0.00 0.29 0.00 85 1015.7
20260506071040 45 0 0.0 0.0 0.00 0.29 0.00 86 1015.5
20260506070540 45 0 0.0 0.0 0.00 0.29 0.00 86 1015.6
20260506062045 46 0 0.0 2.0 0.00 0.34 0.00 84 1014.8
20260506061554 46 0 0.0 2.0 0.00 0.34 0.00 85 1014.8
20260506061044 46 0 0.0 0.0 0.00 0.34 0.00 85 1015.0
20260506060544 46 0 0.0 0.0 0.00 0.34 0.00 85 1015.3
20260506051043 46 0 0.0 2.0 0.01 0.34 0.00 82 1016.0
20260506050543 46 0 0.0 2.0 0.01 0.34 0.00 82 1016.0
20260506050105 46 0 0.0 2.0 0.01 0.34 0.00 82 1015.9
20260506045044 46 0 0.0 3.0 0.02 0.34 0.34 81 1016.0
20260506044557 46 0 0.0 3.0 0.02 0.34 0.34 80 1016.1
20260506044041 46 0 0.0 1.0 0.02 0.34 0.34 80 1016.2
20260506043545 46 0 0.0 1.0 0.02 0.34 0.34 79 1016.3
20260506043049 47 0 0.0 3.0 0.02 0.34 0.34 78 1016.4
20260506042541 47 0 0.0 3.0 0.02 0.34 0.34 77 1016.3
20260506042040 47 291 0.0 3.0 0.01 0.33 0.33 76 1016.3
20260506041602 47 302 0.0 5.0 0.01 0.33 0.33 75 1016.4
20260506041040 48 0 0.0 9.0 0.01 0.33 0.33 73 1016.4
20260506040540 48 296 0.0 9.0 0.01 0.33 0.33 70 1016.3
20260506040054 49 297 1.0 9.0 0.01 0.33 0.33 69 1016.2
20260506035542 50 315 1.0 6.0 0.00 0.32 0.32 66 1016.1
20260506035044 50 327 1.0 5.0 0.00 0.32 0.32 65 1016.1
20260506034557 50 0 0.0 3.0 0.00 0.32 0.32 64 1015.9
20260506034043 50 0 0.0 2.0 0.00 0.32 0.32 67 1015.9
20260506033543 50 0 0.0 4.0 0.00 0.32 0.32 66 1015.9
20260506033051 51 0 0.0 7.0 0.00 0.32 0.32 63 1015.8
20260506032541 51 5 2.0 7.0 0.00 0.32 0.32 61 1015.7
20260506032040 51 5 1.0 4.0 0.00 0.32 0.32 63 1015.7
20260506031548 51 0 0.0 1.0 0.00 0.32 0.32 68 1015.2
20260506031041 51 0 0.0 2.0 0.00 0.32 0.32 66 1015.1
20260506030541 52 0 0.0 2.0 0.00 0.32 0.32 64 1014.9
20260506030049 52 0 0.0 1.0 0.00 0.32 0.32 61 1015.0
20260506025540 51 0 0.0 1.0 0.00 0.32 0.32 62 1014.7
20260506025041 52 0 0.0 3.0 0.00 0.32 0.32 62 1014.3
20260506024557 52 0 0.0 3.0 0.00 0.32 0.32 61 1014.2
20260506024041 52 0 0.0 3.0 0.00 0.32 0.32 61 1014.3
20260506023545 52 0 0.0 4.0 0.00 0.32 0.32 62 1014.0
20260506023047 52 0 0.0 4.0 0.00 0.32 0.32 63 1013.8
20260506022543 51 29 0.0 4.0 0.00 0.32 0.32 63 1013.8
20260506022043 52 0 0.0 2.0 0.00 0.32 0.32 63 1013.9
20260506021549 52 0 0.0 2.0 0.00 0.32 0.32 63 1013.7
20260506021044 52 0 0.0 2.0 0.00 0.32 0.32 62 1013.5
20260506020540 52 0 0.0 2.0 0.00 0.32 0.32 62 1013.5
20260506020104 52 0 0.0 2.0 0.00 0.32 0.32 63 1013.5
20260506015543 52 0 0.0 3.0 0.00 0.32 0.32 63 1013.4
20260506015041 52 0 0.0 3.0 0.00 0.32 0.32 63 1013.4
20260506014606 52 0 0.0 1.0 0.00 0.32 0.32 63 1013.3
20260506014041 52 0 0.0 1.0 0.00 0.32 0.32 63 1013.1
20260506013543 52 0 0.0 1.0 0.00 0.32 0.32 62 1013.1
20260506013049 52 0 0.0 1.0 0.00 0.32 0.32 63 1013.1
20260506012544 52 0 0.0 1.0 0.00 0.32 0.32 63 1013.1
20260506012041 52 0 0.0 1.0 0.00 0.32 0.32 62 1013.1
20260506011613 52 0 0.0 1.0 0.00 0.32 0.32 61 1013.1
20260506011041 53 0 0.0 1.0 0.00 0.32 0.32 60 1013.1
20260506010544 53 0 0.0 1.0 0.00 0.32 0.32 58 1013.1
20260506010051 53 0 0.0 1.0 0.00 0.32 0.32 57 1012.9
20260506005540 53 0 0.0 1.0 0.00 0.32 0.32 57 1013.0
20260506005040 53 0 0.0 1.0 0.00 0.32 0.32 56 1012.9
20260506004603 53 0 0.0 2.0 0.00 0.32 0.32 55 1012.8
20260506004041 54 0 0.0 2.0 0.00 0.32 0.32 56 1012.7
20260506003542 54 28 0.0 2.0 0.00 0.32 0.32 55 1012.8
20260506003046 54 0 0.0 1.0 0.00 0.32 0.32 57 1012.7
20260506002541 54 0 0.0 2.0 0.00 0.32 0.32 58 1012.6
20260506002041 54 0 0.0 2.0 0.00 0.32 0.32 56 1012.5
20260506001556 54 337 0.0 5.0 0.00 0.32 0.32 57 1012.6
20260506001041 54 0 1.0 5.0 0.00 0.32 0.32 57 1012.4
20260506000541 54 360 0.0 2.0 0.00 0.32 0.32 59 1012.4
20260506000117 54 0 0.0 2.0 0.00 0.32 0.32 58 1012.3
20260505235545 55 0 0.0 2.0 0.00 0.32 0.32 58 1012.4
20260505235041 55 0 0.0 2.0 0.00 0.32 0.32 58 1012.6
20260505234554 55 5 0.0 2.0 0.00 0.32 0.32 59 1012.6
20260505234041 55 0 0.0 3.0 0.00 0.32 0.32 58 1012.8
20260505233540 55 0 0.0 3.0 0.00 0.32 0.32 59 1012.7
20260505233055 55 332 0.0 3.0 0.00 0.32 0.32 59 1012.7
20260505232540 55 21 0.0 2.0 0.00 0.32 0.32 57 1012.4
20260505232044 55 0 0.0 2.0 0.00 0.32 0.32 57 1012.4
20260505231611 55 0 0.0 2.0 0.00 0.32 0.32 59 1012.3
20260505231042 55 5 0.0 5.0 0.00 0.32 0.32 64 1012.3
20260505230540 55 0 0.0 5.0 0.00 0.32 0.32 66 1012.2
20260505230106 55 0 0.0 5.0 0.00 0.32 0.32 64 1012.2
20260505225544 55 0 0.0 5.0 0.00 0.32 0.32 67 1012.2
20260505225044 55 0 0.0 5.0 0.00 0.32 0.32 67 1012.2
20260505224558 55 292 0.0 5.0 0.00 0.32 0.32 68 1012.3
20260505224040 55 0 0.0 3.0 0.00 0.32 0.32 70 1012.4
20260505223540 55 0 0.0 3.0 0.00 0.32 0.32 71 1012.3
20260505223054 54 0 0.0 3.0 0.00 0.32 0.32 72 1012.3
20260505222540 54 0 0.0 3.0 0.00 0.32 0.32 71 1012.3
20260505222040 54 0 0.0 3.0 0.00 0.32 0.32 71 1012.1
20260505221559 54 0 0.0 3.0 0.00 0.32 0.32 72 1012.1
20260505221040 54 0 0.0 4.0 0.00 0.32 0.32 73 1012.1
20260505220541 54 0 0.0 4.0 0.00 0.32 0.32 73 1012.3
20260505220054 54 0 0.0 5.0 0.00 0.32 0.32 73 1012.4
20260505215541 54 0 1.0 5.0 0.00 0.32 0.32 71 1012.4
20260505215046 54 308 0.0 4.0 0.00 0.32 0.32 71 1012.6
20260505214556 54 300 0.0 5.0 0.00 0.32 0.32 72 1012.6
20260505214044 54 0 0.0 5.0 0.00 0.32 0.32 73 1012.5
20260505213540 53 321 0.0 5.0 0.00 0.32 0.32 72 1012.7
20260505213057 53 299 0.0 4.0 0.00 0.32 0.32 72 1012.7
20260505212540 53 0 0.0 4.0 0.00 0.32 0.32 72 1012.8
20260505212043 53 0 0.0 3.0 0.00 0.32 0.32 72 1012.8
20260505211555 53 0 0.0 4.0 0.00 0.32 0.32 71 1012.8
20260505211041 53 0 0.0 4.0 0.00 0.32 0.32 72 1012.8
20260505210540 53 0 0.0 4.0 0.00 0.32 0.32 72 1012.8
20260505210048 53 0 0.0 3.0 0.00 0.32 0.32 72 1012.9
20260505205543 53 317 0.0 4.0 0.00 0.32 0.32 73 1012.9
20260505205041 53 0 0.0 4.0 0.00 0.32 0.32 72 1012.9
20260505204553 53 318 0.0 4.0 0.00 0.32 0.32 72 1013.0
20260505204040 53 273 0.0 4.0 0.00 0.32 0.32 73 1012.8
20260505203541 53 0 0.0 4.0 0.00 0.32 0.32 72 1012.9
20260505203058 53 0 0.0 2.0 0.00 0.32 0.32 72 1013.0
20260505202541 53 0 0.0 3.0 0.00 0.32 0.32 72 1013.0
20260505202041 53 0 0.0 3.0 0.00 0.32 0.32 72 1013.0
20260505201550 53 0 0.0 2.0 0.00 0.32 0.32 72 1013.0
20260505201041 53 0 0.0 1.0 0.00 0.32 0.32 72 1013.1
20260505200541 53 0 0.0 2.0 0.00 0.32 0.32 72 1013.1
20260505200049 53 348 0.0 2.0 0.00 0.32 0.32 75 1013.0
20260505195541 52 0 0.0 2.0 0.00 0.32 0.32 74 1013.0
20260505195043 52 0 0.0 2.0 0.00 0.32 0.32 75 1013.1
20260505194605 52 0 0.0 1.0 0.00 0.32 0.32 76 1013.1
20260505194041 51 0 0.0 2.0 0.00 0.32 0.32 76 1013.2
20260505193541 52 0 0.0 4.0 0.00 0.32 0.32 76 1013.4
20260505193049 51 0 0.0 4.0 0.00 0.32 0.32 77 1013.4
20260505192540 51 59 0.0 3.0 0.00 0.32 0.32 77 1013.4
20260505192040 51 0 0.0 5.0 0.00 0.32 0.32 76 1013.2
20260505191604 52 0 0.0 5.0 0.00 0.32 0.32 78 1013.2
20260505191041 52 0 0.0 4.0 0.00 0.32 0.32 77 1013.4
20260505190541 51 0 0.0 4.0 0.00 0.32 0.32 78 1013.4
20260505190050 51 30 0.0 4.0 0.00 0.32 0.32 76 1013.3
20260505185545 51 0 0.0 4.0 0.00 0.32 0.32 79 1013.5
20260505185041 51 0 0.0 3.0 0.00 0.32 0.32 79 1013.4
20260505184550 50 0 0.0 5.0 0.00 0.32 0.32 79 1013.3
20260505184041 50 0 0.0 5.0 0.00 0.32 0.32 81 1013.3
20260505183540 50 40 0.0 5.0 0.00 0.32 0.32 81 1013.3
20260505183055 49 0 0.0 4.0 0.00 0.32 0.32 81 1013.2
20260505182540 49 0 0.0 4.0 0.00 0.32 0.32 81 1013.3
20260505182042 49 0 0.0 4.0 0.00 0.32 0.32 81 1013.4
20260505181552 49 0 0.0 3.0 0.00 0.32 0.32 82 1013.3
20260505181119 49 0 0.0 3.0 0.00 0.32 0.32 82 1013.3
20260505180540 49 100 0.0 3.0 0.00 0.32 0.32 83 1013.2
20260505180057 49 38 0.0 3.0 0.00 0.32 0.32 84 1013.2
20260505175543 49 0 0.0 4.0 0.00 0.32 0.32 83 1013.4
20260505175041 49 123 0.0 4.0 0.01 0.32 0.32 82 1013.7
20260505174554 49 50 1.0 4.0 0.01 0.32 0.32 83 1013.5
20260505174041 49 0 0.0 5.0 0.01 0.32 0.32 85 1013.7
20260505173541 48 113 0.0 5.0 0.01 0.32 0.32 86 1013.8
20260505173111 48 54 1.0 4.0 0.01 0.32 0.32 85 1013.7
20260505172540 48 0 0.0 2.0 0.01 0.32 0.32 87 1013.9
20260505172040 48 0 0.0 2.0 0.01 0.32 0.32 87 1013.7
20260505171608 48 0 0.0 2.0 0.01 0.32 0.32 86 1013.9
20260505171040 48 0 0.0 2.0 0.01 0.32 0.32 86 1013.8
20260505170540 48 0 0.0 2.0 0.01 0.32 0.32 85 1013.7
20260505170052 48 97 0.0 4.0 0.01 0.32 0.32 84 1013.7
20260505165540 48 0 1.0 4.0 0.01 0.32 0.32 85 1013.6
20260505165040 48 0 0.0 4.0 0.00 0.31 0.31 85 1013.6
20260505164558 48 0 0.0 4.0 0.01 0.31 0.31 85 1013.6
20260505164041 48 121 0.0 4.0 0.01 0.31 0.31 85 1013.5
20260505163540 48 85 0.0 4.0 0.01 0.31 0.31 86 1013.6
20260505163048 48 0 0.0 4.0 0.01 0.31 0.31 86 1013.3
20260505162540 48 46 0.0 4.0 0.01 0.31 0.31 86 1013.4
20260505162041 48 105 0.0 2.0 0.01 0.31 0.31 86 1013.5
20260505161554 48 0 0.0 5.0 0.01 0.31 0.31 87 1013.7
20260505161041 48 0 0.0 6.0 0.01 0.31 0.31 87 1013.6
20260505160544 48 0 1.0 6.0 0.01 0.31 0.31 87 1013.4
20260505153051 47 46 1.0 5.0 0.00 0.30 0.30 88 1013.8
20260505152543 47 0 0.0 4.0 0.00 0.30 0.30 89 1013.7
20260505152040 48 0 0.0 9.0 0.00 0.30 0.30 89 1013.4
20260505151548 47 0 0.0 9.0 0.00 0.30 0.30 89 1013.1
20260505151043 47 34 0.0 2.0 0.01 0.30 0.30 89 1013.6
20260505150541 47 0 0.0 1.0 0.01 0.30 0.30 89 1013.7
20260505150110 47 0 0.0 3.0 0.01 0.30 0.30 89 1013.7
20260505140540 47 0 0.0 4.0 0.06 0.29 0.29 90 1012.7
20260505130105 47 0 0.0 2.0 0.13 0.23 0.23 88 1012.1
20260505125040 47 0 0.0 3.0 0.12 0.22 0.22 88 1012.3
20260505124611 47 0 0.0 3.0 0.11 0.21 0.21 87 1012.1
20260505124042 47 44 1.0 3.0 0.10 0.20 0.20 87 1011.9
20260505123540 47 0 0.0 3.0 0.10 0.20 0.20 86 1013.3
20260505123108 47 0 0.0 1.0 0.10 0.20 0.20 85 1012.8
20260505122540 47 0 0.0 3.0 0.10 0.20 0.20 84 1012.0
20260505122041 47 0 0.0 3.0 0.11 0.20 0.20 83 1011.5
20260505121621 47 0 0.0 1.0 0.08 0.17 0.17 81 1011.2
20260505121041 48 0 0.0 4.0 0.05 0.14 0.14 78 1011.3
20260505120540 49 0 0.0 6.0 0.02 0.10 0.10 76 1011.4
20260505120110 49 0 1.0 6.0 0.02 0.10 0.10 74 1012.7
20260505115543 49 305 0.0 6.0 0.02 0.10 0.10 75 1011.5
20260505115044 49 0 1.0 6.0 0.03 0.10 0.10 76 1009.6
20260505114551 48 0 0.0 5.0 0.05 0.10 0.10 78 1009.6
20260505114044 48 0 0.0 5.0 0.05 0.10 0.10 78 1009.6
20260505113544 48 48 0.0 5.0 0.05 0.10 0.10 77 1009.4
20260505113055 48 128 0.0 3.0 0.05 0.10 0.10 78 1009.5
20260505112544 49 0 0.0 3.0 0.05 0.10 0.10 76 1009.7
20260505112044 49 329 0.0 3.0 0.04 0.09 0.09 76 1009.9
20260505111554 49 0 0.0 3.0 0.04 0.09 0.09 73 1010.1
20260505111048 49 0 0.0 2.0 0.04 0.09 0.09 74 1010.7
20260505110544 49 0 0.0 5.0 0.03 0.08 0.08 72 1010.0
20260505102044 54 26 2.0 14.0 0.00 0.05 0.05 50 1008.8
20260505101557 54 49 3.0 13.0 0.00 0.05 0.05 49 1008.9
20260505101044 54 36 3.0 11.0 0.00 0.05 0.05 50 1008.8
20260505100544 54 38 1.0 8.0 0.00 0.05 0.05 51 1008.9
20260505100136 54 0 2.0 8.0 0.00 0.05 0.05 51 1009.1
20260505095547 54 90 0.0 7.0 0.00 0.05 0.05 51 1009.3
20260505095046 54 0 0.0 11.0 0.00 0.05 0.05 51 1009.0
20260505094556 54 63 0.0 11.0 0.00 0.05 0.05 51 1009.1
20260505094040 55 17 2.0 11.0 0.00 0.05 0.05 49 1009.0
20260505093541 55 355 1.0 9.0 0.00 0.05 0.05 49 1009.1
20260505093058 55 0 1.0 7.0 0.00 0.05 0.05 50 1009.3
20260505092550 55 0 1.0 5.0 0.00 0.05 0.05 50 1009.2
20260505092045 54 0 0.0 6.0 0.00 0.05 0.05 50 1009.3
20260505091614 55 77 0.0 6.0 0.00 0.05 0.05 50 1009.3
20260505091044 55 0 1.0 6.0 0.00 0.05 0.05 49 1009.2
20260505090544 54 0 0.0 3.0 0.00 0.05 0.05 50 1009.3
20260505090101 55 51 0.0 5.0 0.00 0.05 0.05 49 1009.2
20260505085540 55 0 1.0 5.0 0.00 0.05 0.05 48 1009.0
20260505085040 55 0 0.0 5.0 0.00 0.05 0.05 49 1009.0
20260505084552 55 0 0.0 7.0 0.00 0.05 0.05 50 1009.2
20260505084044 55 0 1.0 7.0 0.00 0.05 0.05 49 1009.1
20260505083542 55 15 0.0 3.0 0.00 0.05 0.05 49 1008.9
20260505083054 55 332 0.0 3.0 0.00 0.05 0.05 50 1008.8
20260505082540 55 13 0.0 5.0 0.00 0.05 0.05 49 1008.7
20260505082041 55 0 1.0 5.0 0.00 0.05 0.05 48 1008.4
20260505081554 55 0 0.0 9.0 0.00 0.05 0.05 49 1008.3
20260505081044 55 0 0.0 11.0 0.00 0.05 0.05 48 1008.2
20260505080541 55 28 1.0 11.0 0.00 0.05 0.05 48 1008.0